Regional Weather Roundup
Issued by NWS San Angelo, TX

Home | Current Version | Previous Version | Text Only | Print | Product List | Glossary On
Versions: 1 2 3 4 5 6 7 8 9 10 11 12 13 14 15 16 17 18 19 20 21 22 23 24 25 26 27 28 29 30 31 32 33 34 35 36 37 38 39 40 41 42 43 44 45 46 47 48 49 50
000
ASUS44 KSJT 082111
RWRSJT
WEST CENTRAL TEXAS REGIONAL WEATHER ROUNDUP
NATIONAL WEATHER SERVICE SAN ANGELO TX
300 PM CST MON FEB 08 2016

NOTE: "FAIR" INDICATES FEW OR NO CLOUDS BELOW 12,000 FEET WITH NO
SIGNIFICANT WEATHER AND/OR OBSTRUCTIONS TO VISIBILITY.

TXZ049-054-064>066-071>073-076>078-098-099-113-114-127-128-139-140-
154-155-168>170-082200
...LOCATIONS ACROSS WEST CENTRAL TEXAS...

CITY           SKY/WX    TMP DP  RH WIND       PRES   REMARKS
SAN ANGELO     SUNNY     59  14  17 N10G22    30.39F
ABILENE        SUNNY     57  12  17 N22G31    30.35F
DYESS AFB      SUNNY     58  15  18 N20G29    30.35F
JUNCTION       SUNNY     59  14  17 N14G23    30.37F
SWEETWATER     SUNNY     56   8  14 NW13G20   30.39F
BROWNWOOD      SUNNY     57   7  13 NW18G29   30.34F
COLEMAN        CLEAR     58  11  15 N18G26    30.36F
SONORA         SUNNY     57  14  18 N9G17     30.42F
OZONA          FAIR      57  12  17 NE9       30.41F
BRADY          NOT AVBL
$$

TEXAS PANHANDLE/OKLAHOMA PANHANDLE

CITY           SKY/WX    TMP DP  RH WIND       PRES   REMARKS
AMARILLO       SUNNY     53  19  26 NW18G30   30.35F
BORGER         SUNNY     53  16  23 N21G33    30.35F
CANADIAN       SUNNY     52   6  15 N30G36    30.33F
DALHART        SUNNY     53  18  25 N14G24    30.37F
DUMAS          CLEAR     52  18  26 N16G29    30.35F
GUYMON         NOT AVBL
HEREFORD       NOT AVBL
PAMPA          CLEAR     53  17  24 N28G36    30.33F
PERRYTON       SUNNY     51  13  21 N26       30.31F
$$

SOUTHERN PANHANDLE/SOUTH PLAINS/ROLLING PLAINS

CITY           SKY/WX    TMP DP  RH WIND       PRES   REMARKS
LUBBOCK        MOSUNNY   55  17  22 NW13      30.37F
SNYDER           N/A     55  13  19 NW12G17   30.38F
CHILDRESS      SUNNY     57   9  14 NW25G33   30.33F
SEMINOLE       CLEAR     52  14  22 N8        30.42F
$$

PERMIAN BASIN

CITY           SKY/WX    TMP DP  RH WIND       PRES   REMARKS
MIDLAND        SUNNY     54  13  19 NW8       30.41F
ODESSA         SUNNY     54  12  18 VRB6      30.41F
WINK           SUNNY     52  12  20 CALM      30.40F
$$

FAR WEST/SOUTHWEST MOUNTAINS/TRANS PECOS

CITY           SKY/WX    TMP DP  RH WIND       PRES   REMARKS
ALPINE         CLEAR     51  18  27 CALM      30.43F
DRYDEN           N/A     58  12  16 VRB6      30.37F
EL PASO        MOSUNNY   57  15  19 SE3       30.33F
FORT STOCKTON  SUNNY     51  12  21 MISG      30.40F
GUADALUPE PASS SUNNY     50  11  20 SW12      30.36F
MARFA          SUNNY     52  15  23 E5        30.38F
PECOS          CLEAR     53  12  19 NW3       30.41F
$$

DALLAS/FORT WORTH METROPLEX

CITY           SKY/WX    TMP DP  RH WIND       PRES   REMARKS
DFW AIRPORT    SUNNY     57   8  14 NW23G38   30.25F
FTW MEACHAM    SUNNY     56   9  15 NW22G38   30.28F
DAL-EXECUTIVE  SUNNY     55  10  16 NW28G40   30.24F
GRAND PRAIRIE  SUNNY     55   9  15 W14G25    30.28F
ADDISON        SUNNY     55  14  19 NW26G37   30.25F
MESQUITE       CLEAR     54   7  15 NW28G46   30.25F
LANCASTER      CLEAR     55   3  12 NW26G33   30.27S
$$

NORTH CENTRAL TEXAS

CITY           SKY/WX    TMP DP  RH WIND       PRES   REMARKS
SHRMAN/DENISON CLEAR     54   5  14 NW31G41   30.23F
GAINESVILLE    SUNNY     53   7  15 W26G40    30.26F
BRIDGEPORT     CLEAR     55  19  24 NW21G29   30.31F
DENTON         SUNNY     54  10  17 NW24G37   30.26F
WAXAHACHIE     CLEAR     55  15  20 NW26G43   30.27F
GRANBURY       CLEAR     58  10  14 NW24G32   30.31F
$$

WESTERN NORTH TEXAS

CITY           SKY/WX    TMP DP  RH WIND       PRES   REMARKS
WICHITA FALLS  LGT RAIN  55   4  12 NW29G46   30.30F
VERNON         CLEAR     58  -8   7 N22G36    30.33F
BRECKENRIDGE   CLEAR     59   6  12 N21G32    30.33F
COMANCHE       SUNNY     58  13  17 NW17G31   30.33F
$$

CENTRAL AND SOUTH CENTRAL TEXAS

CITY           SKY/WX    TMP DP  RH WIND       PRES   REMARKS
AUSTIN/BERGSTM MOSUNNY   64  15  15 NW18G26   30.30F
WACO           SUNNY     60  10  14 NW21G33   30.29F
HILLSBORO      CLEAR     56  10  16 NW25G38   30.28F
TEMPLE         SUNNY     60  13  15 W21       30.29F
KILLEEN-GRAY   SUNNY     60   9  13 NW21G28   30.30F
FORT HOOD      NOT AVBL
GEORGETOWN     SUNNY     63  16  16 NW17G23   30.31F
LAGO VISTA     FAIR      62  14  15 N14G26    30.31F
SAN MARCOS     SUNNY     63  19  19 N18G25    30.34F
NEW BRAUNFELS  CLOUDY    65  16  15 N20       30.31F
RANDOLPH AFB   SUNNY     63  16  16 NW16G23   30.32F
SAN ANTONIO    PTSUNNY   63  18  17 N14G24    30.33F
STINSON        MOSUNNY   64  15  15 NW12      30.31F
PLEASANTON     NOT AVBL
LA GRANGE      SUNNY     63  18  17 NW18G31   30.28F
GIDDINGS       CLEAR     60  14  16 NW15G26   30.33F
$$

EAST TEXAS

CITY           SKY/WX    TMP DP  RH WIND       PRES   REMARKS
PARIS          SUNNY     54  14  20 NW32G40   30.16F
CLARKSVILLE    NOT AVBL
TYLER          SUNNY     55  10  16 NW29G40   30.20F
LONGVIEW       NOT AVBL
PALESTINE      CLEAR     56  14  19 NW18G33   30.24F
NACOGDOCHES    SUNNY     55  12  18 NW28G38   30.19S
$$

TEXAS HILL COUNTRY AND EDWARDS PLATEAU

CITY           SKY/WX    TMP DP  RH WIND       PRES   REMARKS
LLANO          CLEAR     61  14  16 N15G23    30.37F
HORSESHOE BAY  FAIR      61  15  17 NW12G22   30.34F
KERRVILLE      SUNNY     59  14  16 N13G22    30.35F
FREDERICKSBRG  SUNNY     58  15  18 N13G23    30.34F
ROCKSPRINGS    CLEAR     55  18  22 N7        30.38F
HONDO          CLOUDY    64  15  15 N12       30.36F
UVALDE         MOCLDY    62  19  18 N7        30.36F
DEL RIO        MOSUNNY   61  14  16 NW10      30.38F
$$

SOUTHEAST TEXAS

CITY           SKY/WX    TMP DP  RH WIND       PRES   REMARKS
COLLEGE STN    SUNNY     60   9  13 NW22G33   30.27F
CALDWELL       CLEAR     61  10  13 NW17G23   30.31F
CROCKETT       CLEAR     55  10  16 NW21G30   30.25F
BRENHAM        SUNNY     63  15  15 NW21      30.28F
HUNTSVILLE     SUNNY     58  12  16 NW21G29   30.24F
CONROE         SUNNY     60   8  12 NW21G35   30.23F
HOUSTON BUSH   MOSUNNY   63  11  13 NW22G36   30.23F
HOUSTON HOBBY  MOSUNNY   63   8  11 NW22G32   30.23F
PERLAND        SUNNY     63  10  12 NW20G30   30.24F
WHARTON        CLEAR     64  16  15 N20G29    30.28F
$$

THE UPPER TEXAS COAST

CITY           SKY/WX    TMP DP  RH WIND       PRES   REMARKS
ORANGE         CLEAR     61   1   9 W15G28    30.17F
PORT ARTHUR    SUNNY     62  10  13 NW24G39   30.16F
GALVESTON      SUNNY     62  23  22 NW18G30   30.22F
ANGLETON       SUNNY     63  13  14 NW17G36   30.25F
BAY CITY       CLEAR     65  20  17 NW22G30   30.26F
$$

TEXAS COASTAL BEND, RIO GRANDE PLAINS DEEP SOUTH TEXAS

CITY           SKY/WX    TMP DP  RH WIND       PRES   REMARKS
VICTORIA       SUNNY     67  21  17 N17G24    30.30F
BEEVILLE       FAIR      68  24  19 N12G17    30.31F
ROCKPORT       MOSUNNY   70  30  22 N13       30.30F
PORT ARANSAS   PTCLDY    66  28  24 N15       30.30F
PORT LAVACA    PTCLDY    67  25  20 N26G44    30.28F
CORPUS CHRISTI PTSUNNY   69  21  16 N16       30.31F
KINGSVILLE NAS CLOUDY    68  26  20 N16       30.31F
COTULLA        CLOUDY    68  19  15 N10       30.35F
LAREDO         CLOUDY    67  21  17 N12       30.35F
BROWNSVILLE    CLOUDY    63  47  55 N17G25    30.32F
PORT ISABEL    CLOUDY    63  45  51 N22G29    30.31F
HEBBRONVILLE   NOT AVBL
MCALLEN        CLOUDY    69  31  24 N14G24    30.34F
WESLACO        CLOUDY    66  32  28 NE13      30.32F
FALFURRIAS     PTCLDY    67  18  15 N10       30.32F
EDINBURG       CLOUDY    69  24  18 NE10G17   30.34F
$$



USA.gov is the U.S. government's official web portal to all federal, state and local government web resources and services.